レナード彗星

C/2021 U4 ( Leonard )

English version
Home page
Updated on January 17, 2022

---------------------------------------------------------------------

・ プロフィール

発見日 2021年10月31日
発見光度 19.8等
発見者 G. J. Leonard (Mt. Lemmon)

・ 軌道要素

Epoch 2022 Jan. 21.0 TT = JDT 2459600.5
T 2021 Dec. 21.94327 TT                                 Rudenko
q   1.7874266            (2000.0)            P               Q
z  +0.0222730      Peri.  237.27958     +0.91534466     +0.02651560
 +/-0.0000817      Node   241.80509     +0.26506298     -0.79083207
e   0.9601887      Incl.  152.87773     -0.30312666     -0.61145855
From 36 observations 2021 Oct. 7-Nov. 8, mean residual 0".3.

・ 光度変化

        m1 = 17.0 + 5 logΔ + 10.0 log r

---------------------------------------------------------------------

軌道要素はM.P.E.C. 2021-W31に掲載されたものです。
光度グラフはComet for Windowsで作成したものです。

---------------------------------------------------------------------

Copyright(C) Seiichi Yoshida (comet@aerith.net). All rights reserved.